Date,TemperatureHighF,TemperatureAvgF,TemperatureLowF,DewpointHighF,DewpointAvgF,DewpointLowF,HumidityHigh,HumidityAvg,HumidityLow,PressureMaxIn,PressureMinIn,WindSpeedMaxMPH,WindSpeedAvgMPH,GustSpeedMaxMPH,PrecipitationSumIn
2013-1-1,78.2,72.3,66.3,64.4,61.5,58.8,83,69,59,30.16,30.00,22,3,22,0.00
2013-1-2,81.6,71.4,61.8,67.7,63.8,59.2,92,78,53,30.05,29.94,12,1,12,0.00
2013-1-3,82.5,73.2,67.3,68.9,66.7,64.6,92,81,60,30.09,29.98,11,1,13,0.00
2013-1-4,80.5,71.8,65.7,71.2,67.5,63.3,92,87,67,30.18,30.06,10,2,11,0.01
2013-1-5,74.5,69.5,66.4,69.6,66.5,64.0,92,90,82,30.21,30.11,15,2,15,0.05
2013-1-6,80.2,72.7,65.5,72.6,68.1,63.1,92,86,73,30.14,30.01,17,2,17,0.01
2013-1-7,74.5,70.8,68.2,69.5,67.6,65.8,92,90,80,30.12,30.02,15,2,15,0.00
2013-1-8,81.2,74.9,69.3,72.9,70.3,66.9,92,86,72,30.15,30.03,19,3,19,0.00
2013-1-9,80.5,76.6,73.8,71.8,70.7,69.3,90,82,74,30.24,30.11,25,6,25,0.00
2013-1-10,79.0,75.8,73.1,69.8,67.1,64.2,82,75,63,30.25,30.13,24,5,28,0.08
2013-1-11,79.7,75.2,71.6,69.8,67.9,66.2,86,78,68,30.21,30.11,20,4,20,0.00
2013-1-12,78.1,73.5,66.7,69.8,67.5,64.0,91,82,69,30.14,30.05,17,2,17,0.03
2013-1-13,79.5,73.9,66.6,68.5,65.9,63.8,92,77,63,30.09,30.02,19,3,20,0.03
2013-1-14,79.2,72.0,64.2,66.5,64.4,61.5,92,78,62,30.13,30.07,18,2,19,0.00
2013-1-15,76.9,71.6,65.7,69.7,66.7,62.7,92,85,73,30.09,30.00,14,2,15,0.03
2013-1-16,79.7,72.2,63.7,70.2,66.9,61.3,92,84,69,30.06,29.97,15,2,16,0.04
2013-1-17,79.7,70.7,60.4,71.5,65.8,54.2,92,85,70,30.05,29.93,24,3,24,0.02
2013-1-18,70.1,62.6,52.4,60.5,54.0,46.8,83,74,64,30.19,30.05,19,5,19,0.00
2013-1-19,69.8,67.7,63.6,66.7,63.4,58.1,92,86,67,30.18,30.04,12,1,15,0.16
2013-1-20,78.8,70.1,64.3,69.6,65.6,61.8,92,86,68,30.10,29.96,14,1,15,0.18
2013-1-21,78.7,71.5,65.8,71.1,67.0,63.4,92,86,74,30.03,29.91,13,1,13,0.01
2013-1-22,74.0,67.1,62.3,63.7,59.7,54.7,92,78,61,30.17,29.96,22,4,22,0.00
2013-1-23,72.1,66.1,60.2,58.5,56.2,53.8,85,71,54,30.25,30.15,19,3,19,0.00
2013-1-24,74.0,64.6,58.1,56.0,53.7,43.6,88,69,45,30.25,30.15,17,2,17,0.00
2013-1-25,74.8,65.4,58.2,59.9,56.1,52.4,89,73,52,30.24,30.13,14,2,14,0.00
2013-1-26,75.6,66.5,58.6,61.6,58.6,52.8,92,77,54,30.21,30.11,13,1,15,0.00
2013-1-27,75.8,69.4,62.2,64.4,61.0,58.4,92,76,59,30.24,30.15,17,3,17,0.00
2013-1-28,78.5,74.0,70.3,66.4,64.3,62.3,79,72,60,30.27,30.17,21,4,22,0.00
2013-1-29,78.5,73.5,67.2,69.6,66.8,64.0,91,80,68,30.19,30.07,22,3,22,0.00
2013-1-30,79.8,74.1,70.4,68.1,66.0,63.9,88,76,64,30.08,29.92,23,4,26,0.00
2013-1-31,71.8,65.8,57.9,69.3,59.1,43.5,92,80,55,30.14,29.90,20,4,20,0.00